1991-01-01 03:00:00,NaN,NaN,NaN,NaN
1991-01-01 06:00:00,NaN,NaN,NaN,NaN
1991-01-01 09:00:00,NaN,NaN,NaN,NaN
1991-01-01 12:00:00,NaN,NaN,NaN,NaN
1991-01-01 15:00:00,NaN,NaN,NaN,NaN
1991-01-01 18:00:00,NaN,NaN,NaN,NaN
1991-01-01 21:00:00,NaN,NaN,NaN,NaN
1991-01-02 00:00:00,NaN,NaN,NaN,NaN
1991-01-02 03:00:00,NaN,NaN,NaN,NaN
1991-01-02 06:00:00,NaN,NaN,NaN,NaN
1991-01-02 09:00:00,NaN,NaN,NaN,NaN
1991-01-02 12:00:00,NaN,NaN,NaN,NaN
1991-01-02 15:00:00,NaN,NaN,NaN,NaN
1991-01-02 18:00:00,2.5,2.4,185.1,18.8
1991-01-02 21:00:00,2.9,2.7,191.7,17.1
1991-01-03 00:00:00,4.1,4.1,185.5,8.3
1991-01-03 03:00:00,1.8,1.7,183.5,16.6
1991-01-03 06:00:00,3.7,3.5,184.3,18.8
1991-01-03 09:00:00,2.3,2.0,170.7,27.6
1991-01-03 12:00:00,2.6,2.3,153.4,31.2
1991-01-03 15:00:00,1.6,0.8,225.7,56.1
1991-01-03 18:00:00,2.1,1.2,192.2,53.6
1991-01-03 21:00:00,1.9,1.4,159.4,42.1
1991-01-04 00:00:00,1.0,0.1,326.0,77.3
1991-01-04 03:00:00,1.2,1.1,11.3,31.9
1991-01-04 06:00:00,1.0,0.7,29.7,45.5
1991-01-04 09:00:00,0.7,0.4,41.7,54.7
1991-01-04 12:00:00,1.5,1.0,6.9,43.8
1991-01-04 15:00:00,1.4,0.1,146.8,79.1
1991-01-04 18:00:00,1.0,0.2,42.3,73.7
1991-01-04 21:00:00,0.7,0.2,47.6,71.6
1991-01-05 00:00:00,1.1,0.5,29.4,56.4
1991-01-05 03:00:00,1.3,0.9,30.8,46.0
1991-01-05 06:00:00,1.5,1.3,20.7,30.1
1991-01-05 09:00:00,1.9,1.6,18.9,33.0
1991-01-05 12:00:00,1.5,0.2,211.5,75.5
1991-01-05 15:00:00,0.8,0.1,87.4,77.1
1991-01-05 18:00:00,0.7,0.2,34.0,66.2
1991-01-05 21:00:00,1.2,0.2,49.0,73.8
1991-01-06 00:00:00,1.2,0.2,42.4,74.1
1991-01-06 03:00:00,1.7,0.3,36.8,72.1
1991-01-06 06:00:00,1.2,0.3,23.5,69.2
1991-01-06 09:00:00,1.0,0.1,230.9,78.9
1991-01-06 12:00:00,1.1,0.2,176.6,74.8
1991-01-06 15:00:00,0.9,0.9,173.5,13.7
1991-01-06 18:00:00,0.7,0.1,32.6,75.9
1991-01-06 21:00:00,1.0,0.2,32.7,72.9
1991-01-07 00:00:00,1.2,0.7,3.7,53.1
1991-01-07 03:00:00,1.4,0.6,8.6,61.2
1991-01-07 06:00:00,1.3,0.1,29.7,76.5
1991-01-07 09:00:00,0.7,0.3,22.0,61.8
1991-01-07 12:00:00,0.8,0.4,7.9,53.8
1991-01-07 15:00:00,1.0,0.5,14.0,54.8
1991-01-07 18:00:00,1.2,1.0,20.8,34.0
1991-01-07 21:00:00,1.1,0.9,30.9,36.2
1991-01-08 00:00:00,1.5,1.3,19.6,27.5
1991-01-08 03:00:00,1.7,1.1,29.9,45.5
1991-01-08 06:00:00,1.8,1.6,18.5,20.7
1991-01-08 09:00:00,1.9,1.8,15.2,17.5
1991-01-08 12:00:00,1.2,1.0,23.9,32.3
1991-01-08 15:00:00,1.7,1.5,21.7,28.1
1991-01-08 18:00:00,1.8,1.7,21.2,23.5
1991-01-08 21:00:00,1.9,1.7,17.8,25.6
1991-01-09 00:00:00,2.4,2.3,15.4,15.6
1991-01-09 03:00:00,2.0,1.9,15.8,20.1
1991-01-09 06:00:00,2.2,2.0,14.3,23.5
1991-01-09 09:00:00,2.1,2.1,15.7,15.9
1991-01-09 12:00:00,1.4,1.4,24.7,19.9
1991-01-09 15:00:00,1.9,1.8,19.2,22.1
1991-01-09 18:00:00,1.7,1.7,13.9,16.0
1991-01-09 21:00:00,1.9,1.9,8.0,14.7
1991-01-10 00:00:00,1.8,1.6,12.2,28.3
1991-01-10 03:00:00,1.8,1.5,13.1,35.7
1991-01-10 06:00:00,1.7,1.5,9.9,32.0
1991-01-10 09:00:00,1.1,0.7,24.7,52.5
1991-01-10 12:00:00,1.7,1.5,8.5,31.2
1991-01-10 15:00:00,1.8,1.5,7.2,32.1
1991-01-10 18:00:00,1.2,0.9,9.7,41.5
1991-01-10 21:00:00,1.7,1.6,10.7,19.4
1991-01-11 00:00:00,1.2,1.1,18.1,30.2
1991-01-11 03:00:00,1.1,0.9,15.2,36.8
1991-01-11 06:00:00,1.5,1.3,14.5,29.3
1991-01-11 09:00:00,1.5,1.4,10.0,24.3
1991-01-11 12:00:00,1.2,1.1,12.3,23.6
1991-01-11 15:00:00,1.8,1.6,10.0,21.7
1991-01-11 18:00:00,2.1,2.0,9.4,13.0
1991-01-11 21:00:00,2.2,1.9,11.1,26.9
1991-01-12 00:00:00,1.9,1.6,10.7,31.7
1991-01-12 03:00:00,3.1,3.0,13.6,16.6
1991-01-12 06:00:00,3.0,2.8,16.3,21.4
1991-01-12 09:00:00,2.2,1.9,20.8,30.0
1991-01-12 12:00:00,5.0,4.6,350.6,23.7
1991-01-12 15:00:00,7.4,6.7,358.0,24.1
1991-01-12 18:00:00,4.6,4.2,329.5,24.9
1991-01-12 21:00:00,6.6,6.2,318.0,21.2
1991-01-13 00:00:00,5.1,4.7,330.3,23.2
1991-01-13 03:00:00,6.0,5.5,340.4,24.0
1991-01-13 06:00:00,9.1,8.7,343.1,17.2
1991-01-13 09:00:00,8.6,8.3,343.9,14.6
1991-01-13 12:00:00,9.8,9.4,347.5,15.0
1991-01-13 15:00:00,9.3,8.9,353.4,16.9
1991-01-13 18:00:00,9.4,8.8,4.5,20.2
1991-01-13 21:00:00,8.5,8.0,354.8,20.2
1991-01-14 00:00:00,6.4,5.8,7.5,24.5
1991-01-14 03:00:00,4.5,3.9,6.4,28.7
1991-01-14 06:00:00,5.9,5.4,345.6,22.0
1991-01-14 09:00:00,6.4,5.9,343.0,23.1
1991-01-14 12:00:00,7.1,6.9,352.4,14.4
1991-01-14 15:00:00,5.9,4.3,344.2,42.5
1991-01-14 18:00:00,7.6,7.2,347.1,18.7
1991-01-14 21:00:00,5.4,3.5,13.4,47.9
1991-01-15 00:00:00,7.0,3.2,207.1,59.6
1991-01-15 03:00:00,8.0,2.4,316.3,67.8
1991-01-15 06:00:00,5.8,2.6,154.3,59.9
1991-01-15 09:00:00,7.3,4.7,117.8,48.7
1991-01-15 12:00:00,8.3,5.2,40.4,48.9
1991-01-15 15:00:00,9.4,6.4,33.3,46.0
1991-01-15 18:00:00,15.6,14.5,9.0,21.6
1991-01-15 21:00:00,16.7,15.7,7.5,19.7
1991-01-16 00:00:00,11.3,9.2,11.4,35.5
1991-01-16 03:00:00,14.8,13.9,3.2,19.7
1991-01-16 06:00:00,11.0,9.2,22.4,32.7
1991-01-16 09:00:00,9.0,6.7,31.4,41.1
1991-01-16 12:00:00,10.9,9.1,25.5,32.6
1991-01-16 15:00:00,8.8,7.3,8.8,33.8
1991-01-16 18:00:00,5.5,0.4,348.8,78.1
1991-01-16 21:00:00,6.2,3.4,48.6,54.5
1991-01-17 00:00:00,10.4,8.8,41.8,32.1
1991-01-17 03:00:00,11.5,9.7,29.5,31.5
1991-01-17 06:00:00,10.2,8.4,41.2,34.2
1991-01-17 09:00:00,7.2,5.0,56.5,45.0
1991-01-17 12:00:00,10.7,9.3,12.5,28.8
1991-01-17 15:00:00,10.5,9.5,355.5,24.7
1991-01-17 18:00:00,6.7,6.1,320.2,24.7
1991-01-17 21:00:00,4.5,2.7,356.6,50.5
1991-01-18 00:00:00,8.8,8.2,352.2,20.2
1991-01-18 03:00:00,8.3,7.8,348.7,19.2
1991-01-18 06:00:00,7.5,6.3,349.3,33.2
1991-01-18 09:00:00,8.2,6.5,2.6,37.2
1991-01-18 12:00:00,7.0,5.7,14.6,35.4
1991-01-18 15:00:00,6.3,0.8,83.6,76.0
1991-01-18 18:00:00,4.7,3.3,153.9,43.2
1991-01-18 21:00:00,8.4,5.9,18.3,44.1
1991-01-19 00:00:00,8.5,7.2,2.6,31.3
1991-01-19 03:00:00,9.2,8.2,353.1,26.0
1991-01-19 06:00:00,2.1,0.7,39.9,65.9
1991-01-19 09:00:00,2.0,1.9,23.5,23.6
1991-01-19 12:00:00,3.0,0.9,151.1,67.2
1991-01-19 15:00:00,3.8,0.8,173.9,72.4
1991-01-19 18:00:00,5.3,4.6,349.3,30.8
1991-01-19 21:00:00,4.7,1.6,214.2,66.0
1991-01-20 00:00:00,7.3,6.2,210.9,31.7
1991-01-20 03:00:00,8.5,7.6,206.9,26.3
1991-01-20 06:00:00,6.2,4.7,206.2,40.2
1991-01-20 09:00:00,3.4,0.7,230.3,71.9
1991-01-20 12:00:00,5.4,4.2,190.5,38.2
1991-01-20 15:00:00,7.8,4.9,203.4,49.4
1991-01-20 18:00:00,9.9,7.6,32.2,39.0
1991-01-20 21:00:00,10.6,8.6,5.6,34.5
1991-01-21 00:00:00,11.7,11.1,349.4,19.3
1991-01-21 03:00:00,11.4,10.9,344.4,16.3
1991-01-21 06:00:00,9.8,9.4,349.1,17.0
1991-01-21 09:00:00,12.1,11.7,347.4,14.4
1991-01-21 12:00:00,12.6,11.8,351.0,20.6
1991-01-21 15:00:00,12.1,11.0,359.1,24.8
1991-01-21 18:00:00,11.9,10.2,10.5,30.5
1991-01-21 21:00:00,15.7,14.5,358.4,22.1
1991-01-22 00:00:00,7.7,4.5,1.9,52.2
1991-01-22 03:00:00,6.5,1.8,17.5,68.7
1991-01-22 06:00:00,6.2,2.8,20.4,60.4
1991-01-22 09:00:00,6.9,4.2,70.6,51.0
1991-01-22 12:00:00,7.8,4.5,102.9,52.6
1991-01-22 15:00:00,12.3,8.9,39.5,42.6
1991-01-22 18:00:00,9.6,6.8,32.1,44.3
1991-01-22 21:00:00,8.4,5.9,40.9,43.7
1991-01-23 00:00:00,6.2,3.8,70.2,50.3
1991-01-23 03:00:00,7.0,4.2,157.0,51.9
1991-01-23 06:00:00,14.3,11.2,31.0,37.9
1991-01-23 09:00:00,10.3,7.3,25.9,43.7
1991-01-23 12:00:00,9.2,8.3,1.6,25.4
1991-01-23 15:00:00,7.9,7.1,334.5,25.4
1991-01-23 18:00:00,5.4,4.2,331.1,37.8
1991-01-23 21:00:00,6.0,5.3,340.3,26.8
1991-01-24 00:00:00,8.1,7.4,346.3,23.8
1991-01-24 03:00:00,8.6,8.0,352.3,22.3
1991-01-24 06:00:00,8.8,7.9,359.9,25.8
1991-01-24 09:00:00,10.6,9.6,2.1,25.0
1991-01-24 12:00:00,12.9,11.8,2.0,23.9
1991-01-24 15:00:00,12.6,10.6,14.8,32.3
1991-01-24 18:00:00,8.9,6.1,32.3,45.8
1991-01-24 21:00:00,9.8,7.7,37.4,37.5
1991-01-25 00:00:00,7.7,2.5,76.5,66.3
1991-01-25 03:00:00,6.5,3.0,110.9,59.6
1991-01-25 06:00:00,9.4,7.0,26.0,41.4
1991-01-25 09:00:00,9.6,8.2,11.4,31.0
1991-01-25 12:00:00,8.2,7.5,344.5,23.0
1991-01-25 15:00:00,8.9,8.2,338.2,22.6
1991-01-25 18:00:00,10.0,9.5,339.3,18.2
1991-01-25 21:00:00,6.5,5.8,351.2,26.8
1991-01-26 00:00:00,7.2,6.9,358.3,16.7
1991-01-26 03:00:00,2.5,2.1,9.2,33.1
1991-01-26 06:00:00,1.5,1.3,21.1,30.6
1991-01-26 09:00:00,1.7,1.6,21.7,26.5
1991-01-26 12:00:00,1.8,1.6,32.6,24.2
1991-01-26 15:00:00,1.0,0.7,30.8,43.4
1991-01-26 18:00:00,1.0,0.7,27.9,47.2
1991-01-26 21:00:00,0.9,0.6,12.9,46.2
1991-01-27 00:00:00,2.1,1.0,174.7,57.6
1991-01-27 03:00:00,5.1,3.5,18.1,46.2
1991-01-27 06:00:00,7.1,6.5,4.2,23.6
1991-01-27 09:00:00,8.2,7.6,355.8,22.4
1991-01-27 12:00:00,8.1,7.5,359.8,21.4
1991-01-27 15:00:00,8.6,7.3,26.8,30.7
1991-01-27 18:00:00,7.1,5.7,25.5,35.7
1991-01-27 21:00:00,8.4,7.5,351.7,27.5
1991-01-28 00:00:00,9.0,8.3,355.0,22.8
1991-01-28 03:00:00,10.7,10.3,349.4,15.4
1991-01-28 06:00:00,10.4,9.8,350.3,19.6
1991-01-28 09:00:00,6.8,6.3,332.0,23.4
1991-01-28 12:00:00,5.0,3.3,311.0,47.0
1991-01-28 15:00:00,4.6,3.6,333.1,37.4
1991-01-28 18:00:00,3.6,0.8,353.1,71.6
1991-01-28 21:00:00,1.8,0.4,348.7,72.2
1991-01-29 00:00:00,1.2,0.6,46.5,58.6
1991-01-29 03:00:00,0.9,0.7,35.3,40.6
1991-01-29 06:00:00,1.3,0.9,29.0,44.8
1991-01-29 09:00:00,1.1,1.0,16.8,23.4
1991-01-29 12:00:00,0.9,0.5,24.6,50.3
1991-01-29 15:00:00,1.5,1.2,157.9,37.4
1991-01-29 18:00:00,1.7,1.1,189.2,45.9
1991-01-29 21:00:00,2.4,0.4,59.0,74.9
1991-01-30 00:00:00,2.7,0.4,22.5,74.1
1991-01-30 03:00:00,2.2,0.6,53.3,68.4
1991-01-30 06:00:00,3.2,2.6,26.2,36.1
1991-01-30 09:00:00,3.9,2.9,21.1,41.7
1991-01-30 12:00:00,6.6,6.1,345.8,23.3
1991-01-30 15:00:00,10.2,9.4,334.5,22.8
1991-01-30 18:00:00,4.1,3.6,356.2,28.4
1991-01-30 21:00:00,1.1,0.4,75.7,62.1
1991-01-31 00:00:00,0.8,0.6,59.3,42.2
1991-01-31 03:00:00,0.5,0.2,95.3,61.1
1991-01-31 06:00:00,0.5,0.1,120.4,69.2
1991-01-31 09:00:00,1.3,0.5,1.7,61.4
1991-01-31 12:00:00,1.6,0.1,181.2,77.8
1991-01-31 15:00:00,1.9,1.7,20.6,21.2
1991-01-31 18:00:00,2.4,2.2,16.8,18.5
1991-01-31 21:00:00,2.5,2.4,17.3,15.1
1991-02-01 00:00:00,1.7,1.5,29.9,28.5
1991-02-01 03:00:00,2.2,2.0,27.5,23.3
1991-02-01 06:00:00,2.0,1.8,33.9,29.8
1991-02-01 09:00:00,1.9,1.7,31.8,29.4
1991-02-01 12:00:00,1.8,1.3,32.6,43.1
1991-02-01 15:00:00,2.6,2.4,18.5,18.9
1991-02-01 18:00:00,2.2,1.8,42.4,32.8
1991-02-01 21:00:00,2.0,1.9,28.2,22.9
1991-02-02 00:00:00,2.3,0.5,36.1,71.6
1991-02-02 03:00:00,2.6,1.4,159.0,55.0
1991-02-02 06:00:00,2.1,0.8,146.3,63.2
1991-02-02 09:00:00,4.7,2.8,314.1,50.8
1991-02-02 12:00:00,6.5,5.5,324.1,32.6
1991-02-02 15:00:00,5.1,3.5,322.0,44.9
1991-02-02 18:00:00,4.4,3.2,323.9,42.6
1991-02-02 21:00:00,1.9,1.3,175.5,44.9
1991-02-03 00:00:00,5.3,3.8,302.9,42.0
1991-02-03 03:00:00,3.9,1.9,296.2,57.8
1991-02-03 06:00:00,5.0,4.4,322.9,28.6
1991-02-03 09:00:00,7.4,7.0,325.0,17.6
1991-02-03 12:00:00,7.3,6.8,331.6,20.2
1991-02-03 15:00:00,8.6,8.2,328.1,17.4
1991-02-03 18:00:00,8.3,8.0,324.3,15.5
1991-02-03 21:00:00,7.2,6.8,326.0,16.6
1991-02-04 00:00:00,6.0,4.9,338.1,33.6
1991-02-04 03:00:00,5.2,4.0,343.3,39.4
1991-02-04 06:00:00,7.7,7.3,339.5,18.5
1991-02-04 09:00:00,7.4,7.0,357.7,18.3
1991-02-04 12:00:00,6.7,6.0,19.3,26.0
1991-02-04 15:00:00,10.4,10.0,349.0,15.0
1991-02-04 18:00:00,9.9,9.6,357.4,12.6
1991-02-04 21:00:00,8.5,7.7,10.7,25.0
1991-02-05 00:00:00,8.2,6.9,23.6,31.6
1991-02-05 03:00:00,7.5,6.6,14.0,27.7
1991-02-05 06:00:00,7.3,6.4,5.3,27.6
1991-02-05 09:00:00,8.8,8.0,353.8,25.1
1991-02-05 12:00:00,12.3,11.8,352.7,15.0
1991-02-05 15:00:00,10.9,10.6,332.7,14.0
1991-02-05 18:00:00,10.5,10.2,337.0,14.6
1991-02-05 21:00:00,9.0,8.7,337.1,14.2
1991-02-06 00:00:00,6.7,6.5,348.6,14.4
1991-02-06 03:00:00,3.7,3.3,9.7,27.3
1991-02-06 06:00:00,2.4,2.0,11.8,33.4
1991-02-06 09:00:00,1.8,1.4,31.4,37.0
1991-02-06 12:00:00,1.3,0.9,43.2,42.1
1991-02-06 15:00:00,1.6,1.3,36.0,33.4
1991-02-06 18:00:00,1.5,1.2,37.2,37.3
1991-02-06 21:00:00,2.2,0.7,316.6,66.0
1991-02-07 00:00:00,5.8,5.5,337.1,20.1
1991-02-07 03:00:00,6.7,6.6,346.5,13.1
1991-02-07 06:00:00,6.8,6.4,341.3,20.2
1991-02-07 09:00:00,4.5,3.4,330.9,40.4
1991-02-07 12:00:00,2.5,1.8,349.3,42.3
1991-02-07 15:00:00,2.7,1.4,352.6,57.0
1991-02-07 18:00:00,3.4,3.0,354.3,27.0
1991-02-07 21:00:00,3.5,3.2,327.6,24.9
1991-02-08 00:00:00,2.0,1.3,3.8,48.5
1991-02-08 03:00:00,1.0,0.4,54.4,63.1
1991-02-08 06:00:00,1.5,0.2,228.6,76.2
1991-02-08 09:00:00,1.3,1.0,168.2,43.3
1991-02-08 12:00:00,0.8,0.3,84.9,64.1
1991-02-08 15:00:00,1.5,1.4,23.6,22.6
1991-02-08 18:00:00,2.0,1.8,20.5,23.7
1991-02-08 21:00:00,1.6,1.5,19.8,21.7
1991-02-09 00:00:00,1.6,1.5,33.5,22.3
1991-02-09 03:00:00,2.1,2.0,20.1,19.9
1991-02-09 06:00:00,1.2,0.5,73.8,61.1
1991-02-09 09:00:00,1.0,0.3,123.5,65.0
1991-02-09 12:00:00,0.9,0.5,84.7,55.4
1991-02-09 15:00:00,2.2,2.0,25.7,19.5
1991-02-09 18:00:00,2.0,1.9,29.8,19.2
1991-02-09 21:00:00,1.9,1.7,33.1,23.2
1991-02-10 00:00:00,2.2,2.1,29.3,20.3
1991-02-10 03:00:00,1.7,1.6,31.3,18.6
1991-02-10 06:00:00,2.2,2.0,27.4,18.4
1991-02-10 09:00:00,2.2,2.0,31.0,20.9
1991-02-10 12:00:00,1.7,1.5,34.9,28.1
1991-02-10 15:00:00,2.2,2.2,20.8,13.1
1991-02-10 18:00:00,1.7,1.6,28.0,18.6
1991-02-10 21:00:00,1.9,1.8,30.1,14.7
1991-02-11 00:00:00,2.0,1.9,29.9,14.7
1991-02-11 03:00:00,1.9,1.8,31.5,14.7
1991-02-11 06:00:00,2.0,1.9,23.1,13.8
1991-02-11 09:00:00,2.0,1.9,22.1,17.4
1991-02-11 12:00:00,1.9,1.8,21.5,19.2
1991-02-11 15:00:00,1.8,1.7,20.3,17.6
1991-02-11 18:00:00,1.6,1.5,26.4,20.0
1991-02-11 21:00:00,1.6,1.5,30.7,20.3
1991-02-12 00:00:00,1.6,1.5,29.3,17.5
1991-02-12 03:00:00,1.9,1.9,34.8,16.1
1991-02-12 06:00:00,2.0,1.9,33.3,17.5
1991-02-12 09:00:00,2.0,1.9,31.5,16.2
1991-02-12 12:00:00,1.4,1.3,39.6,27.7
1991-02-12 15:00:00,1.8,1.6,31.8,31.0
1991-02-12 18:00:00,2.1,2.0,28.2,19.9
1991-02-12 21:00:00,2.0,1.9,25.3,17.7
1991-02-13 00:00:00,1.7,1.5,39.8,27.9
1991-02-13 03:00:00,1.8,1.6,32.2,28.8
1991-02-13 06:00:00,2.0,1.9,25.9,20.3
1991-02-13 09:00:00,2.0,1.9,24.7,15.4
1991-02-13 12:00:00,1.7,1.6,32.5,19.4
1991-02-13 15:00:00,1.6,1.4,23.1,23.6
1991-02-13 18:00:00,2.0,2.0,26.9,14.3
1991-02-13 21:00:00,1.8,1.7,29.9,15.6
1991-02-14 00:00:00,1.9,1.8,27.3,12.5
1991-02-14 03:00:00,1.4,1.4,31.2,19.6
1991-02-14 06:00:00,1.6,1.5,29.9,20.0
1991-02-14 09:00:00,1.2,1.1,38.2,23.7
1991-02-14 12:00:00,1.5,1.4,28.3,22.9
1991-02-14 15:00:00,1.7,1.6,19.0,14.7
1991-02-14 18:00:00,1.5,1.4,18.7,23.9
1991-02-14 21:00:00,1.7,1.6,21.9,14.3
1991-02-15 00:00:00,1.4,1.3,23.2,18.3
1991-02-15 03:00:00,1.6,1.5,20.7,20.8
1991-02-15 06:00:00,1.4,1.3,24.8,18.6
1991-02-15 09:00:00,1.5,1.3,31.3,24.0
1991-02-15 12:00:00,1.0,0.8,31.9,34.1
1991-02-15 15:00:00,1.5,1.3,18.7,25.1
1991-02-15 18:00:00,1.9,1.8,20.5,16.8
1991-02-15 21:00:00,1.8,1.7,23.4,18.2
1991-02-16 00:00:00,1.6,1.5,28.4,25.4
1991-02-16 03:00:00,1.5,1.3,29.4,24.9
1991-02-16 06:00:00,1.7,1.6,27.9,20.8
1991-02-16 09:00:00,1.1,0.7,49.8,49.3
1991-02-16 12:00:00,1.1,1.0,21.0,22.3
1991-02-16 15:00:00,2.4,2.0,357.4,31.4
1991-02-16 18:00:00,1.6,1.4,35.1,28.6
1991-02-16 21:00:00,2.0,1.9,28.9,18.6
1991-02-17 00:00:00,1.8,1.7,22.4,22.2
1991-02-17 03:00:00,1.7,1.6,30.0,19.3
1991-02-17 06:00:00,1.3,1.1,33.8,31.1
1991-02-17 09:00:00,1.6,1.5,21.7,21.3
1991-02-17 12:00:00,1.4,1.0,15.7,41.5
1991-02-17 15:00:00,1.5,1.4,17.9,28.7
1991-02-17 18:00:00,1.3,1.1,22.6,25.4
1991-02-17 21:00:00,1.3,1.2,23.5,28.2
1991-02-18 00:00:00,0.9,0.6,31.8,47.3
1991-02-18 03:00:00,1.1,0.7,22.1,49.9
1991-02-18 06:00:00,1.1,0.3,146.8,71.1
1991-02-18 09:00:00,1.3,0.8,31.2,49.5
1991-02-18 12:00:00,1.4,0.4,97.2,67.4
1991-02-18 15:00:00,1.5,0.2,107.6,74.3
1991-02-18 18:00:00,1.9,0.4,300.0,71.2
1991-02-18 21:00:00,1.1,0.6,104.5,54.7
1991-02-19 00:00:00,1.4,1.1,43.1,38.7
1991-02-19 03:00:00,1.4,0.4,96.9,69.5
1991-02-19 06:00:00,1.2,0.5,107.0,60.7
1991-02-19 09:00:00,1.3,1.2,24.7,29.3
1991-02-19 12:00:00,1.4,1.3,34.4,27.1
1991-02-19 15:00:00,1.5,1.4,21.5,20.3
1991-02-19 18:00:00,1.7,1.4,14.8,32.0
1991-02-19 21:00:00,1.9,1.6,12.8,33.5
1991-02-20 00:00:00,1.1,0.7,344.8,53.3
1991-02-20 03:00:00,0.8,0.6,0.8,45.7
1991-02-20 06:00:00,1.1,0.7,154.7,46.4
1991-02-20 09:00:00,1.9,1.5,134.2,36.9
1991-02-20 12:00:00,1.2,0.2,160.3,72.7
1991-02-20 15:00:00,0.8,0.3,161.0,62.8
1991-02-20 18:00:00,0.9,0.3,181.2,64.9
1991-02-20 21:00:00,2.2,1.0,179.7,59.5
1991-02-21 00:00:00,2.9,1.2,179.6,62.8
1991-02-21 03:00:00,2.6,1.0,185.0,62.6
1991-02-21 06:00:00,1.9,1.4,13.3,42.7
1991-02-21 09:00:00,2.0,1.6,20.3,32.2
1991-02-21 12:00:00,1.3,0.8,38.3,51.2
1991-02-21 15:00:00,5.1,3.9,358.3,38.3
1991-02-21 18:00:00,8.2,7.3,313.5,26.3
1991-02-21 21:00:00,4.9,2.0,334.7,62.6
1991-02-22 00:00:00,3.9,1.1,136.6,68.1
1991-02-22 03:00:00,4.4,0.3,203.4,78.1
1991-02-22 06:00:00,4.6,3.0,205.3,46.8
1991-02-22 09:00:00,5.8,4.5,206.1,38.2
1991-02-22 12:00:00,4.9,3.9,207.6,37.1
1991-02-22 15:00:00,4.7,2.9,18.7,49.8
1991-02-22 18:00:00,4.0,2.7,2.4,46.5
1991-02-22 21:00:00,1.2,1.0,33.5,34.6
1991-02-23 00:00:00,0.9,0.7,27.5,38.2
1991-02-23 03:00:00,0.7,0.2,185.4,70.9
1991-02-23 06:00:00,3.5,3.0,187.6,30.5
1991-02-23 09:00:00,4.7,4.6,186.5,10.6
1991-02-23 12:00:00,3.4,2.5,193.3,42.9
1991-02-23 15:00:00,4.2,3.0,340.2,42.7
1991-02-23 18:00:00,1.7,0.7,72.2,62.3
1991-02-23 21:00:00,1.8,1.6,21.0,24.7
1991-02-24 00:00:00,0.9,0.4,45.8,57.8
1991-02-24 03:00:00,1.2,1.0,34.0,39.0
1991-02-24 06:00:00,2.0,1.9,28.7,17.0
1991-02-24 09:00:00,3.0,2.7,30.0,24.9
1991-02-24 12:00:00,2.4,1.9,45.8,36.4
1991-02-24 15:00:00,1.3,0.7,36.1,54.0
1991-02-24 18:00:00,1.1,0.4,75.2,65.1
1991-02-24 21:00:00,0.9,0.5,51.8,48.8
1991-02-25 00:00:00,1.1,0.6,52.6,55.1
1991-02-25 03:00:00,2.1,1.1,194.6,55.1
1991-02-25 06:00:00,2.4,2.1,196.0,27.7
1991-02-25 09:00:00,2.3,2.1,175.9,23.6
1991-02-25 12:00:00,1.9,1.4,176.0,41.8
1991-02-25 15:00:00,2.4,1.9,135.8,37.7
1991-02-25 18:00:00,2.3,1.7,73.6,43.5
1991-02-25 21:00:00,2.1,1.8,30.0,30.9
1991-02-26 00:00:00,2.2,2.1,25.5,18.9
1991-02-26 03:00:00,2.5,1.7,26.1,43.9
1991-02-26 06:00:00,2.0,1.0,29.2,57.0
1991-02-26 09:00:00,1.9,1.7,36.8,26.6
1991-02-26 12:00:00,2.1,1.9,24.6,22.8
1991-02-26 15:00:00,2.5,2.4,17.9,12.2
1991-02-26 18:00:00,2.4,2.1,22.6,27.1
1991-02-26 21:00:00,2.0,1.8,32.1,26.5
1991-02-27 00:00:00,2.1,1.9,32.6,21.0
1991-02-27 03:00:00,2.4,2.3,33.5,19.6
1991-02-27 06:00:00,2.6,2.3,35.7,25.4
1991-02-27 09:00:00,2.2,1.9,30.7,29.5
1991-02-27 12:00:00,1.7,1.3,41.9,38.9
1991-02-27 15:00:00,2.6,2.5,21.3,13.2
1991-02-27 18:00:00,2.8,2.7,21.9,12.2
1991-02-27 21:00:00,2.6,2.5,31.0,20.4
1991-02-28 00:00:00,1.8,1.4,46.4,36.2
1991-02-28 03:00:00,2.5,2.4,22.3,20.6
1991-02-28 06:00:00,2.0,1.5,40.0,41.5
1991-02-28 09:00:00,2.1,1.6,35.2,39.4
1991-02-28 12:00:00,1.4,1.1,37.3,36.0
1991-02-28 15:00:00,1.6,1.3,21.0,30.8
1991-02-28 18:00:00,1.7,1.5,21.8,27.1
1991-02-28 21:00:00,1.9,1.6,39.3,31.6
1991-03-01 00:00:00,2.2,2.0,23.5,24.2
1991-03-01 03:00:00,2.2,2.0,34.4,27.7
1991-03-01 06:00:00,2.5,2.2,26.5,26.0
1991-03-01 09:00:00,1.7,1.5,36.6,24.7
1991-03-01 12:00:00,1.5,1.1,35.1,40.7
1991-03-01 15:00:00,1.5,1.1,39.5,41.0
1991-03-01 18:00:00,1.7,1.5,30.5,28.5
1991-03-01 21:00:00,1.5,1.2,35.2,37.4
1991-03-02 00:00:00,2.0,1.8,29.2,22.8
1991-03-02 03:00:00,1.9,1.9,26.9,16.1
1991-03-02 06:00:00,1.6,1.5,30.6,27.8
1991-03-02 09:00:00,2.1,1.9,27.5,23.2
1991-03-02 12:00:00,1.6,1.4,34.7,30.4
1991-03-02 15:00:00,1.3,1.1,33.9,37.1
1991-03-02 18:00:00,1.9,1.7,36.6,25.4
1991-03-02 21:00:00,1.6,1.2,32.9,40.3
1991-03-03 00:00:00,1.8,1.5,21.9,36.0
1991-03-03 03:00:00,1.4,1.1,26.4,38.6
1991-03-03 06:00:00,1.5,1.2,36.1,33.6
1991-03-03 09:00:00,1.4,1.3,27.4,23.6
1991-03-03 12:00:00,1.2,1.0,35.5,36.4
1991-03-03 15:00:00,1.9,1.9,20.5,16.2
1991-03-03 18:00:00,1.5,1.3,26.8,28.6
1991-03-03 21:00:00,1.7,1.7,26.8,17.8
1991-03-04 00:00:00,1.6,1.5,22.1,22.0
1991-03-04 03:00:00,1.1,0.9,30.1,34.0
1991-03-04 06:00:00,1.3,1.2,20.4,19.4
1991-03-04 09:00:00,0.8,0.5,34.4,47.8
1991-03-04 12:00:00,1.4,1.2,27.4,23.9
1991-03-04 15:00:00,1.0,0.9,23.9,29.9
1991-03-04 18:00:00,0.7,0.5,32.5,40.2
1991-03-04 21:00:00,1.4,1.3,36.3,23.4
1991-03-05 00:00:00,1.8,1.5,43.4,35.2
1991-03-05 03:00:00,1.3,0.6,153.0,56.7
1991-03-05 06:00:00,1.4,1.0,46.8,42.4
1991-03-05 09:00:00,1.5,1.4,38.8,21.6
1991-03-05 12:00:00,1.0,0.9,45.9,31.8
1991-03-05 15:00:00,1.6,1.5,33.1,22.2
1991-03-05 18:00:00,1.6,1.5,32.6,20.2
1991-03-05 21:00:00,1.5,1.3,29.9,24.7
1991-03-06 00:00:00,1.5,1.3,20.6,31.5
1991-03-06 03:00:00,1.0,1.0,27.1,18.8
1991-03-06 06:00:00,1.0,0.9,11.3,22.6
1991-03-06 09:00:00,1.3,0.6,345.5,60.9
1991-03-06 12:00:00,1.5,1.4,18.6,18.1
1991-03-06 15:00:00,1.5,1.4,23.9,25.9
1991-03-06 18:00:00,1.2,0.8,39.3,46.9
1991-03-06 21:00:00,1.4,1.3,27.4,20.4
1991-03-07 00:00:00,1.6,1.6,21.6,14.4
1991-03-07 03:00:00,0.9,0.8,23.0,31.1
1991-03-07 06:00:00,1.2,0.9,23.5,40.1
1991-03-07 09:00:00,1.4,1.2,27.5,28.8
1991-03-07 12:00:00,1.4,0.8,42.0,50.1
1991-03-07 15:00:00,1.3,1.0,46.5,38.7
1991-03-07 18:00:00,1.3,0.8,48.2,47.4
1991-03-07 21:00:00,1.4,0.7,47.4,59.0
1991-03-08 00:00:00,1.8,1.7,29.0,20.4
1991-03-08 03:00:00,1.8,1.7,25.4,20.7
1991-03-08 06:00:00,1.6,1.5,27.0,19.9
1991-03-08 09:00:00,1.8,1.6,35.5,22.2
1991-03-08 12:00:00,1.3,1.0,34.7,33.9
1991-03-08 15:00:00,1.9,1.8,21.5,22.4
1991-03-08 18:00:00,1.6,1.4,23.1,27.3
1991-03-08 21:00:00,1.9,1.6,224.3,33.7
1991-03-09 00:00:00,1.4,1.2,206.7,31.2
1991-03-09 03:00:00,1.6,0.9,207.1,53.3
1991-03-09 06:00:00,1.0,0.3,25.6,68.5
1991-03-09 09:00:00,0.8,0.3,357.8,63.7
1991-03-09 12:00:00,1.2,0.8,200.0,49.7
1991-03-09 15:00:00,0.7,0.5,357.7,46.2
1991-03-09 18:00:00,1.0,0.3,71.9,66.6
1991-03-09 21:00:00,0.7,0.1,47.9,72.9
1991-03-10 00:00:00,0.9,0.1,22.5,76.9
1991-03-10 03:00:00,0.2,0.2,219.2,20.5
1991-03-10 06:00:00,0.9,0.6,7.3,48.9
1991-03-10 09:00:00,0.9,0.6,13.3,50.4
1991-03-10 12:00:00,0.8,0.3,0.9,66.0
1991-03-10 15:00:00,1.1,0.6,3.0,55.7
1991-03-10 18:00:00,1.1,0.3,3.8,70.3
1991-03-10 21:00:00,1.6,1.2,10.4,41.7
1991-03-11 00:00:00,0.5,0.5,182.3,28.1
1991-03-11 03:00:00,0.7,0.0,109.8,79.0
1991-03-11 06:00:00,0.0,0.0,90.0,0.0
1991-03-11 09:00:00,0.0,0.0,90.0,0.0
1991-03-11 12:00:00,1.1,0.6,163.2,51.2
1991-03-11 15:00:00,2.0,1.6,180.1,36.9
1991-03-11 18:00:00,1.8,1.3,179.4,42.6
1991-03-11 21:00:00,1.1,0.8,182.9,38.4
1991-03-12 00:00:00,1.0,1.0,183.6,18.1
1991-03-12 03:00:00,1.3,1.3,183.7,12.7
1991-03-12 06:00:00,0.4,0.3,188.2,34.2
1991-03-12 09:00:00,1.0,0.7,23.0,42.6
1991-03-12 12:00:00,4.3,3.8,93.4,26.5
1991-03-12 15:00:00,1.2,0.1,26.4,77.4
1991-03-12 18:00:00,2.1,1.8,42.9,33.5
1991-03-12 21:00:00,2.2,2.1,10.3,19.6
1991-03-13 00:00:00,1.8,1.8,19.3,17.4
1991-03-13 03:00:00,2.0,2.0,21.7,15.2
1991-03-13 06:00:00,2.2,2.0,27.6,23.0
1991-03-13 09:00:00,1.8,1.6,24.7,29.0
1991-03-13 12:00:00,1.6,1.5,16.1,18.6
1991-03-13 15:00:00,1.8,1.7,9.2,20.0
1991-03-13 18:00:00,1.9,1.8,12.9,21.2
1991-03-13 21:00:00,2.0,1.9,16.6,21.0
1991-03-14 00:00:00,2.3,2.1,29.9,20.3
1991-03-14 03:00:00,2.8,2.5,25.6,25.7
1991-03-14 06:00:00,5.4,5.2,347.8,13.9
1991-03-14 09:00:00,2.7,2.3,30.3,31.9
1991-03-14 12:00:00,1.5,1.4,24.6,23.1
1991-03-14 15:00:00,1.7,1.7,14.9,17.3
1991-03-14 18:00:00,3.0,2.7,22.1,24.9
1991-03-14 21:00:00,2.4,2.0,29.4,34.4
1991-03-15 00:00:00,3.8,3.2,339.9,32.4
1991-03-15 03:00:00,3.3,2.6,6.3,38.3
1991-03-15 06:00:00,4.0,3.8,342.4,17.1
1991-03-15 09:00:00,4.8,4.4,348.0,24.4
1991-03-15 12:00:00,7.1,6.8,344.2,15.6
1991-03-15 15:00:00,6.3,6.1,354.3,15.0
1991-03-15 18:00:00,7.6,7.3,343.9,15.0
1991-03-15 21:00:00,8.7,8.5,347.2,12.8
1991-03-16 00:00:00,8.5,8.3,349.3,11.8
1991-03-16 03:00:00,6.8,6.7,348.5,11.7
1991-03-16 06:00:00,4.6,4.4,1.9,20.0
1991-03-16 09:00:00,4.5,4.2,1.0,19.1
1991-03-16 12:00:00,8.7,8.4,351.9,14.6
1991-03-16 15:00:00,8.7,8.4,330.8,15.1
1991-03-16 18:00:00,7.3,7.1,332.0,13.8
1991-03-16 21:00:00,6.7,6.5,348.3,15.2
1991-03-17 00:00:00,6.0,5.8,351.8,12.7
1991-03-17 03:00:00,6.3,6.1,338.4,12.5
1991-03-17 06:00:00,5.5,5.3,336.9,16.7
1991-03-17 09:00:00,4.3,4.1,20.3,16.7
1991-03-17 12:00:00,4.0,3.6,346.6,26.0
1991-03-17 15:00:00,3.7,3.2,353.8,30.4
1991-03-17 18:00:00,1.6,1.3,22.0,38.9
1991-03-17 21:00:00,2.0,1.8,28.1,28.3
1991-03-18 00:00:00,2.0,1.9,15.8,21.9
1991-03-18 03:00:00,2.0,1.9,15.6,20.2
1991-03-18 06:00:00,1.4,1.2,36.0,28.4
1991-03-18 09:00:00,1.9,1.5,227.8,36.5
1991-03-18 12:00:00,2.5,2.1,199.0,33.4
1991-03-18 15:00:00,4.6,4.5,177.2,11.1
1991-03-18 18:00:00,2.4,2.3,178.9,16.5
1991-03-18 21:00:00,2.1,2.0,176.6,13.2
1991-03-19 00:00:00,0.9,0.2,167.4,71.7
1991-03-19 03:00:00,1.0,0.5,1.0,57.5
1991-03-19 06:00:00,1.1,0.3,51.5,70.7
1991-03-19 09:00:00,1.7,0.6,38.2,65.8
1991-03-19 12:00:00,1.9,0.9,352.9,58.7
1991-03-19 15:00:00,1.4,0.1,31.0,76.9
1991-03-19 18:00:00,1.2,0.4,196.9,65.4
1991-03-19 21:00:00,1.2,0.3,153.0,68.0
1991-03-20 00:00:00,1.4,0.3,162.3,72.9
1991-03-20 03:00:00,1.0,0.3,41.4,68.6
1991-03-20 06:00:00,0.5,0.3,4.8,53.3